Location: Bourg-d�Oueil
(42.8588°N, 0.4991°E)
Time: 04:03:49
(UTC+00:00)

FengYun 1-2 T - Pass Details

Date: 06 February 2022
Orbit: 846 x 881 km, 98.7° (Epoch: 21 May)

Event Time Altitude Azimuth Distance (km) Brightness Sun altitude
Rises 18:11:35 0° 199° (SSW) 3,412 7.8 -10.3°
Reaches altitude 10° 18:14:21 10° 212° (SSW) 2,486 7.3 -10.8°
Maximum altitude 18:18:50 25° 267° (W) 1,677 6.8 -11.7°
Drops below altitude 10° 18:23:22 10° 321° (NW) 2,520 7.1 -12.5°
Sets 18:26:13 0° 334° (NNW) 3,469 7.6 -13.0°
